This is the latest recevied weather packets stored in our database for station/object K4CRS-13. If no packets are shown the sender has not sent any weather packets the latest 10 day(s).
| Time | Temp. | Humidity | Pressure | Rain* | Wind** | Luminosity | Snow |
|---|---|---|---|---|---|---|---|
| 1787955367 | 31.67° C | 52% | 1051.3 hPa | 0 mm | - | 245 W/m² | - |
| 1787955065 | 31.67° C | 51% | 1051.5 hPa | 0 mm | - | 263 W/m² | - |
| 1787954761 | 31.67° C | 50% | 1051.2 hPa | 0 mm | - | 279 W/m² | - |
| 1787954458 | 31.67° C | 52% | 1051.3 hPa | 0 mm | - | 293 W/m² | - |
| 1787954156 | 31.67° C | 50% | 1051.5 hPa | 0 mm | - | 309 W/m² | - |
| 1787953855 | 31.67° C | 52% | 1051.4 hPa | 0 mm | - | 323 W/m² | - |
| 1787953550 | 31.11° C | 55% | 1051.6 hPa | 0 mm | - | 379 W/m² | - |
| 1787953250 | 31.67° C | 51% | 1051.3 hPa | 0 mm | - | 415 W/m² | - |
| 1787952947 | 31.67° C | 52% | 1051.5 hPa | 0 mm | - | 437 W/m² | - |
| 1787952642 | 32.22° C | 50% | 1051.4 hPa | 0 mm | - | 447 W/m² | - |
| 1787952342 | 31.67° C | 50% | 1051.4 hPa | 0 mm | - | 438 W/m² | - |
| 1787952038 | 32.22° C | 49% | 1051.4 hPa | 0 mm | - | 443 W/m² | - |
| 1787951737 | 31.67° C | 52% | 1051.6 hPa | 0 mm | - | 455 W/m² | - |
| 1787951433 | 31.11° C | 54% | 1051.7 hPa | 0 mm | - | 476 W/m² | - |
| 1787951129 | 31.11° C | 54% | 1051.5 hPa | 0 mm | - | 509 W/m² | - |
| 1787950825 | 31.67° C | 52% | 1051.8 hPa | 0 mm | - | 536 W/m² | - |
| 1787950520 | 32.22° C | 53% | 1051.9 hPa | 0 mm | - | 546 W/m² | - |
| 1787950217 | 31.11° C | 51% | 1052 hPa | 0 mm | - | 555 W/m² | - |
| 1787949913 | 31.67° C | 51% | 1052 hPa | 0 mm | - | 517 W/m² | - |
| 1787949607 | 31.11° C | 51% | 1051.8 hPa | 0 mm | - | 501 W/m² | - |
| 1787949303 | 30.56° C | 53% | 1051.9 hPa | 0 mm | - | 515 W/m² | - |
| 1787948997 | 31.67° C | 53% | 1052 hPa | 0 mm | - | 311 W/m² | - |
| 1787948693 | 32.22° C | 52% | 1051.9 hPa | 0 mm | - | 641 W/m² | - |
| 1787948389 | 31.67° C | 52% | 1052 hPa | 0 mm | - | 621 W/m² | - |
| 1787948088 | 31.67° C | 52% | 1052.1 hPa | 0 mm | - | 647 W/m² | - |
* Rain latest hour (hover to see other rain measurements)
** Current wind speed in m/s (hover to see current wind gust speed)